Flag for Germany Weather past 2 weeks in Leimen, Baden-Württemberg, Germany

Now
61 °F

Sunny.


Feels Like: 61 °F
Forecast: 44 / 71 °F
Wind: 3 mph from North

Location: Baden Wurttemberg - Neuostheim


UV Index: 3 (Moderate)

Visibility: 10 mi


Pressure: 29.65 "Hg

Humidity: 52%

Dew point: 43 °F

Location of LeimenLocation

Historic Weather in Leimen

°F

Leimen temperature yesterday

Maximum temperature yesterday: 70 °F (at 2:50 PM)
Minimum temperature yesterday: 54 °F (at 7:50 AM)
Average temperature yesterday: 64 °F

Past Weeks' High & Low Weather Summary

 TemperatureHumidityPressure
High72 °F (Apr 7, 4:20 PM)94% (Apr 7, 6:50 AM)30.42 "Hg (Apr 7, 6:50 AM)
Low34 °F (Apr 17, 6:50 AM)23% (Apr 17, 6:50 PM)29.65 "Hg (Apr 20, 4:20 PM)
Average56 °F52%30.08 "Hg
* Reported Apr 6 10:20 AM — Apr 21 10:50 AM, Leimen, Weather by CustomWeather, © 2014

Note: Actual official high and low records may vary slightly from our data, if they occured in-between our weather recording intervals... More about our weather records

Advertising

Historic Weather Conditions — Data for Previous 24 hours

 ConditionsComfort  
Time TempWeatherWind HumidityBarometerVisibility
10:50 AM
Apr 21
61 °FSunny.3 mph52%29.65 "Hg10 mi
10:20 AM59 °FSunny.5 mph55%29.65 "Hg10 mi
9:50 AM57 °FSunny.2 mph59%29.65 "Hg10 mi
9:20 AM55 °FSunny.2 mph63%29.65 "Hg10 mi
8:50 AM54 °FSunny.2 mph67%29.65 "Hg10 mi
8:20 AM52 °FSunny.3 mph72%29.65 "Hg10 mi
7:50 AM50 °FSunny.2 mph76%29.65 "Hg10 mi
7:20 AM48 °FClear.2 mph82%29.65 "Hg10 mi
7:20 PM
Apr 20
68 °FPassing clouds.7 mph35%29.65 "HgN/A
6:50 PM68 °FPassing clouds.9 mph33%29.65 "HgN/A
6:20 PM68 °FPassing clouds.8 mph35%29.65 "HgN/A
5:50 PM68 °FPassing clouds.13 mph35%29.65 "HgN/A
5:20 PM68 °FPassing clouds.12 mph35%29.65 "HgN/A
4:50 PM68 °FPassing clouds.10 mph33%29.65 "HgN/A
4:20 PM68 °FPassing clouds.13 mph33%29.65 "HgN/A
3:50 PM68 °FSunny.10 mph40%29.68 "Hg10 mi
3:20 PM66 °FPassing clouds.13 mph40%29.68 "HgN/A
2:50 PM70 °FPassing clouds.10 mph38%29.68 "HgN/A
2:20 PM68 °FPassing clouds.9 mph38%29.68 "HgN/A
1:50 PM66 °FSunny.8 mph43%29.68 "Hg10 mi
1:20 PM64 °FBroken clouds.8 mph46%29.68 "HgN/A
12:50 PM64 °FPartly sunny.7 mph49%29.71 "HgN/A
12:20 PM64 °FPartly sunny.8 mph49%29.71 "HgN/A
11:50 AM64 °FScattered clouds.7 mph52%29.71 "HgN/A
11:20 AM64 °FPassing clouds.9 mph52%29.71 "HgN/A
Weather by CustomWeather, © 2014

See weather overview